[[{"header":{"parameterUnit":"m.s-1","parameterCategory":1,"la1":30.2991,"la2":30.254,"lo1":-89.0895,"lo2":-89.0444,"dy":0.0017,"dx":0.0017,"nx":28,"ny":28,"refTime":"2026-02-05T03:00:00:Z","depth":0,"parameterNumber":2,"parameterNumberName":"U-component_of_WINDS"},"data":[0,0,0,0,0,0,0,0,0,0,0,0,0,0,0,0,0,0,0,0,0,0,0,0,0,0,0,0,0,0,0,0,0,0,0,0,0,0,0,0,0,0,0,0,0,0,0,0,0,0,0,0,0,0,0,0,0,0,1.5693,1.5693,0,1.5689,1.5689,1.5689,1.5675,1.5674,1.5674,1.5674,1.5667,1.5667,1.5667,0,0,0,0,0,0,0,0,0,0,0,0,0,1.5687,1.5687,1.5693,1.5693,1.5693,1.5689,1.5689,1.5689,1.5675,1.5674,1.5674,1.5673,1.5667,1.5667,1.5667,0,0,0,0,0,0,0,0,0,0,0,0,0,1.5687,1.5687,1.5693,1.5685,1.5685,1.5689,1.5689,1.5689,1.5675,1.5674,1.5674,1.5673,1.5667,1.5667,1.5667,1.5677,0,0,1.5668,1.5668,0,0,0,0,0,0,0,0,1.5687,1.5687,1.5687,1.5686,1.5685,1.5682,1.5684,1.5685,1.5675,1.5678,1.5674,1.5673,1.5672,1.5672,1.5672,1.5677,1.5677,1.5668,1.5668,1.5668,1.5668,0,0,0,0,0,0,0,1.5687,1.5687,1.5691,1.5687,1.5686,1.5682,1.5681,1.5684,1.5678,1.5678,1.5677,1.5677,1.5671,1.5672,1.5672,1.5677,1.5668,1.5668,1.5668,1.5668,1.5692,1.5692,0,0,0,0,0,0,1.5688,1.5687,1.5691,1.5691,1.5685,1.5682,1.5682,1.5683,1.5678,1.5676,1.5677,1.5676,1.5672,1.5671,1.5671,1.5684,1.5668,1.5668,1.5668,1.5691,1.5692,1.5692,0,0,0,0,0,0,1.5688,1.5689,1.5692,1.5689,1.5689,1.5683,1.5685,1.5683,1.5684,1.5677,1.5676,1.5679,1.5671,1.5671,1.5677,1.5683,1.5668,1.5668,1.569,1.5691,1.5692,1.5708,0,0,0,0,0,0,1.5688,1.5689,1.5693,1.5689,1.5689,1.5697,1.5685,1.5684,1.5684,1.5683,1.5678,1.5677,1.5671,1.5676,1.5677,1.5683,1.5668,1.569,1.5691,1.5692,1.5707,1.5709,1.5711,0,0,0,0,0,1.5688,1.5697,1.5693,1.5694,1.5694,1.5698,1.5697,1.5691,1.5685,1.5689,1.5685,1.5677,1.5683,1.5677,1.5677,1.5684,1.5689,1.5691,1.5692,1.5706,1.5709,1.5711,0,0,0,0,0,0,1.57,1.5696,1.5692,1.57,1.5699,1.5695,1.57,1.5694,1.5695,1.5693,1.5685,1.5684,1.569,1.5688,1.5681,1.5694,1.5685,1.5686,1.5696,1.5698,1.5701,1.57,1.5668,0,0,0,0,0,1.5704,1.5707,1.5704,1.5711,1.5711,1.5706,1.5707,1.5702,1.5701,1.57,1.5697,1.5695,1.5696,1.5697,1.5698,1.5707,1.5706,1.5712,1.5714,1.5716,1.5717,1.5722,1.5725,1.5696,1.5696,1.5696,0,0,1.5711,1.571,1.5712,1.5713,1.5712,1.5716,1.5705,1.5709,1.5712,1.57,1.5706,1.5703,1.5701,1.5708,1.5711,1.5706,1.5725,1.5718,1.5719,1.5719,1.5723,1.5726,1.5729,1.5697,1.5697,1.5697,0,0,1.5726,1.5726,1.5732,1.5732,1.5731,1.5728,1.5729,1.5727,1.5725,1.573,1.5722,1.5725,1.5728,1.5727,1.5726,1.5744,1.5737,1.5744,1.5756,1.5761,1.5763,1.5765,1.5771,1.5773,1.5745,1.5746,1.5746,0,1.5735,1.5741,1.5736,1.5741,1.5742,1.5734,1.574,1.574,1.5739,1.574,1.5734,1.5739,1.5736,1.5744,1.5748,1.5748,1.575,1.5744,1.5763,1.5765,1.5767,1.5772,1.5775,1.5746,1.5746,1.5746,1.5746,0,1.5752,1.5756,1.5761,1.5762,1.5764,1.577,1.5765,1.5768,1.5764,1.5761,1.5767,1.5765,1.5765,1.5767,1.5762,1.5774,1.5771,1.5765,1.5755,1.577,1.5776,1.5778,1.5748,1.5747,1.5747,1.5747,0,0,1.5772,1.5772,1.5774,1.5775,1.5774,1.5777,1.5783,1.5785,1.5787,1.5788,1.5792,1.5796,1.579,1.579,1.5786,1.579,1.5805,1.5783,1.5783,1.5787,1.5818,1.5822,1.5824,1.5801,1.5801,1.5801,1.5818,0,1.5786,1.5796,1.5793,1.5803,1.5807,1.5801,1.5806,1.5806,1.5804,1.5807,1.5805,1.5808,1.58,1.58,1.5805,1.5802,1.581,1.5801,1.5804,1.5804,1.5804,1.5827,1.5831,1.5847,1.582,1.582,1.582,0,1.5804,1.5806,1.5817,1.5818,1.5819,1.5824,1.5826,1.5829,1.583,1.5828,1.5829,1.5824,1.583,1.5821,1.5829,1.5822,1.5824,1.5823,1.5823,1.5822,1.5812,1.5826,1.5851,1.5854,1.5823,1.5823,1.5823,0,1.5817,1.5824,1.5831,1.5832,1.5833,1.5836,1.5837,1.5837,1.5839,1.5841,1.5842,1.5844,1.5845,1.5847,1.5843,1.5837,1.5851,1.5842,1.5849,1.5849,1.5851,1.5851,1.5876,1.5854,1.5854,1.5854,1.5854,0,1.5833,1.584,1.5837,1.5842,1.585,1.5846,1.5854,1.5853,1.5854,1.5858,1.5853,1.5857,1.5852,1.5855,1.5852,1.5859,1.5859,1.5858,1.5857,1.5858,1.5858,1.5857,1.5856,1.5854,1.5854,1.5854,1.5854,0,1.5848,1.5847,1.5855,1.5856,1.5857,1.5862,1.5863,1.5867,1.5866,1.5871,1.5872,1.587,1.5874,1.5871,1.5874,1.5872,1.5881,1.5879,1.5881,1.588,1.5888,1.5887,1.5913,1.5916,1.5892,1.5892,1.5892,0,1.5858,1.5863,1.5865,1.5869,1.587,1.5874,1.5877,1.5874,1.5877,1.5879,1.5883,1.5887,1.589,1.5897,1.5895,1.5898,1.5895,1.5904,1.5895,1.5897,1.5895,1.5894,1.5895,1.5905,1.5906,1.5906,1.5906,0,1.5875,1.5875,1.5879,1.5884,1.5887,1.589,1.5893,1.5896,1.5893,1.5896,1.5901,1.5904,1.5909,1.5912,1.5915,1.5915,1.591,1.5909,1.5911,1.5912,1.5913,1.5912,1.5885,1.5908,1.5908,1.5908,1.5908,1.5908,1.5887,1.5892,1.5895,1.59,1.5903,1.5906,1.591,1.591,1.5915,1.5919,1.5917,1.5923,1.5924,1.5928,1.5929,1.5933,1.5929,1.5931,1.5932,1.5932,1.5933,1.5913,1.5933,1.5933,1.5933,1.5933,1.5933,0,1.5904,1.5906,1.5911,1.5916,1.592,1.5917,1.592,1.5924,1.5929,1.5932,1.5936,1.5942,1.5946,1.5945,1.5949,1.5953,1.5951,1.5954,1.5953,1.5953,1.5937,1.5935,1.5956,1.5956,1.5956,1.5956,1.5955,1.5955,1.5913,1.5921,1.5922,1.5931,1.5933,1.594,1.5942,1.5945,1.5947,1.5954,1.5958,1.5959,1.596,1.5964,1.5968,1.5968,1.5969,1.5973,1.5972,1.5956,1.5954,1.5952,1.595,1.5974,1.5974,1.5988,1.5988,1.5988]},{"header":{"parameterUnit":"m.s-1","parameterCategory":1,"la1":30.2991,"la2":30.254,"lo1":-89.0895,"lo2":-89.0444,"dy":0.0017,"dx":0.0017,"nx":28,"ny":28,"refTime":"2026-02-05T03:00:00:Z","depth":0,"parameterNumber":3,"parameterNumberName":"V-component_of_WINDS"},"data":[0,0,0,0,0,0,0,0,0,0,0,0,0,0,0,0,0,0,0,0,0,0,0,0,0,0,0,0,0,0,0,0,0,0,0,0,0,0,0,0,0,0,0,0,0,0,0,0,0,0,0,0,0,0,0,0,0,0,-7.8356,-7.8358,0,-7.847,-7.8471,-7.8472,-7.8379,-7.8375,-7.8371,-7.8367,-7.8478,-7.8484,-7.8491,0,0,0,0,0,0,0,0,0,0,0,0,0,-7.8055,-7.8061,-7.8356,-7.8358,-7.8359,-7.8469,-7.8471,-7.8472,-7.8379,-7.8375,-7.837,-7.8365,-7.8476,-7.8484,-7.8491,0,0,0,0,0,0,0,0,0,0,0,0,0,-7.8179,-7.8063,-7.8356,-7.8326,-7.8325,-7.8469,-7.8471,-7.8473,-7.838,-7.8375,-7.8369,-7.8363,-7.8473,-7.8483,-7.8493,-7.8671,0,0,-7.8523,-7.8527,0,0,0,0,0,0,0,0,-7.8172,-7.819,-7.8329,-7.8328,-7.8327,-7.8404,-7.8405,-7.8539,-7.8382,-7.8359,-7.8367,-7.836,-7.8458,-7.8469,-7.8502,-7.8676,-7.8681,-7.8524,-7.853,-7.8534,-7.8537,0,0,0,0,0,0,0,-7.8164,-7.8185,-7.8401,-7.8331,-7.833,-7.8306,-7.8317,-7.843,-7.844,-7.8361,-7.8354,-7.8369,-7.8456,-7.8493,-7.8504,-7.8682,-7.8523,-7.8532,-7.8538,-7.8542,-7.901,-7.9016,0,0,0,0,0,0,-7.8159,-7.8178,-7.8397,-7.8404,-7.8234,-7.8316,-7.8328,-7.8385,-7.8438,-7.8441,-7.8374,-7.8364,-7.8479,-7.8493,-7.8508,-7.8722,-7.8534,-7.8543,-7.8549,-7.9004,-7.9012,-7.9019,0,0,0,0,0,0,-7.8153,-7.8179,-7.8393,-7.829,-7.8315,-7.8327,-7.8392,-7.8391,-7.8428,-7.8449,-7.8449,-7.8411,-7.8475,-7.8494,-7.8632,-7.8725,-7.8547,-7.8556,-7.8996,-7.9006,-7.9015,-7.9151,0,0,0,0,0,0,-7.8144,-7.8178,-7.8246,-7.8292,-7.8321,-7.8517,-7.8398,-7.8397,-7.8446,-7.8434,-7.8483,-7.8485,-7.8472,-7.8618,-7.8642,-7.8735,-7.8564,-7.8988,-7.9001,-7.9012,-7.9139,-7.9165,-7.9187,0,0,0,0,0,-7.8134,-7.8278,-7.825,-7.8277,-7.8407,-7.8522,-7.8538,-7.8522,-7.8453,-7.8522,-7.8536,-7.8484,-7.8711,-7.8633,-7.8659,-7.8757,-7.8982,-7.8997,-7.9011,-7.9128,-7.9159,-7.9186,0,0,0,0,0,0,-7.8241,-7.8284,-7.8253,-7.8417,-7.8467,-7.8506,-7.8592,-7.8555,-7.8624,-7.861,-7.8584,-7.8596,-7.8742,-7.8763,-7.8675,-7.8933,-7.8835,-7.8856,-7.8915,-7.8945,-7.8969,-7.8961,-7.8572,0,0,0,0,0,-7.8284,-7.8375,-7.8406,-7.8548,-7.8575,-7.858,-7.8629,-7.8612,-7.8662,-7.8682,-7.8705,-7.8755,-7.8837,-7.8892,-7.8968,-7.9141,-7.9151,-7.9221,-7.9245,-7.9265,-7.9283,-7.9378,-7.941,-7.9067,-7.9067,-7.9066,0,0,-7.8372,-7.8407,-7.8466,-7.857,-7.8607,-7.8701,-7.8598,-7.8701,-7.8771,-7.8697,-7.883,-7.8849,-7.8902,-7.9059,-7.9129,-7.9081,-7.938,-7.9283,-7.9299,-7.9307,-7.9396,-7.9429,-7.9457,-7.9077,-7.9075,-7.9073,0,0,-7.8583,-7.8618,-7.8741,-7.8781,-7.8839,-7.8842,-7.8871,-7.8917,-7.8928,-7.9062,-7.9009,-7.909,-7.9232,-7.9273,-7.9313,-7.9542,-7.9497,-7.9567,-7.9693,-7.9786,-7.9813,-7.9837,-7.992,-7.995,-7.9585,-7.9586,-7.9586,0,-7.8686,-7.8827,-7.8808,-7.8917,-7.8965,-7.8905,-7.9029,-7.9068,-7.9148,-7.9182,-7.9126,-7.9306,-7.9337,-7.9503,-7.956,-7.9593,-7.9626,-7.9562,-7.9811,-7.9834,-7.9856,-7.9936,-7.9967,-7.9594,-7.9593,-7.9592,-7.9591,0,-7.8952,-7.9051,-7.9142,-7.9224,-7.9282,-7.9398,-7.9396,-7.9457,-7.9435,-7.9444,-7.9581,-7.9617,-7.9701,-7.9739,-7.9717,-7.9904,-7.9872,-7.9814,-7.9716,-7.9898,-7.9972,-8.0002,-7.9606,-7.9603,-7.96,-7.9598,0,0,-7.9231,-7.9304,-7.9338,-7.9375,-7.9436,-7.9512,-7.9625,-7.971,-7.9763,-7.982,-7.9915,-8.0037,-7.9986,-8.003,-8.0013,-8.0094,-8.0276,-8.0027,-8.0027,-8.0073,-8.0485,-8.0529,-8.0565,-8.0246,-8.0252,-8.0257,-8.0481,0,-7.9446,-7.9646,-7.9634,-7.9821,-7.9913,-7.9858,-7.9957,-8.0005,-8.0016,-8.0095,-8.0105,-8.0194,-8.0118,-8.0145,-8.0223,-8.0238,-8.0359,-8.0221,-8.0334,-8.0339,-8.0325,-8.0603,-8.065,-8.086,-8.051,-8.0515,-8.0518,0,-7.9724,-7.9794,-7.9992,-8.0041,-8.0079,-8.0169,-8.0247,-8.0322,-8.0375,-8.0378,-8.043,-8.04,-8.0513,-8.0412,-8.0569,-8.0476,-8.0521,-8.0535,-8.0543,-8.0554,-8.044,-8.0623,-8.0927,-8.0959,-8.0563,-8.056,-8.0556,0,-7.9911,-8.0054,-8.0192,-8.0225,-8.0286,-8.035,-8.0378,-8.0426,-8.0478,-8.0545,-8.058,-8.0658,-8.0702,-8.0763,-8.0755,-8.0682,-8.0916,-8.0812,-8.0921,-8.0922,-8.0973,-8.0971,-8.129,-8.1001,-8.1,-8.0999,-8.0999,0,-8.0153,-8.0277,-8.0277,-8.0362,-8.0499,-8.0483,-8.0618,-8.0639,-8.0682,-8.0769,-8.0725,-8.0807,-8.0791,-8.0873,-8.0867,-8.0999,-8.1018,-8.1024,-8.1021,-8.1029,-8.1029,-8.1059,-8.1045,-8.1008,-8.1006,-8.1004,-8.1003,0,-8.0386,-8.0391,-8.0538,-8.0584,-8.0599,-8.0698,-8.0737,-8.0817,-8.0825,-8.0936,-8.0961,-8.0974,-8.1069,-8.1067,-8.1173,-8.1169,-8.1332,-8.1311,-8.1315,-8.1312,-8.1421,-8.1412,-8.1773,-8.182,-8.1498,-8.1501,-8.1504,0,-8.0541,-8.0635,-8.0693,-8.075,-8.0783,-8.0874,-8.0928,-8.0916,-8.0974,-8.1043,-8.1115,-8.1206,-8.1279,-8.1432,-8.145,-8.1532,-8.1514,-8.1635,-8.1525,-8.1531,-8.1518,-8.1513,-8.1523,-8.1656,-8.166,-8.1663,-8.1665,0,-8.0816,-8.0815,-8.0896,-8.098,-8.1047,-8.1111,-8.117,-8.1219,-8.1213,-8.128,-8.1378,-8.1435,-8.1546,-8.1637,-8.1716,-8.1743,-8.1704,-8.17,-8.1729,-8.1739,-8.1738,-8.1742,-8.1375,-8.1691,-8.1689,-8.1687,-8.1685,-8.1684,-8.1016,-8.1098,-8.1153,-8.1245,-8.1289,-8.1346,-8.1425,-8.1444,-8.1526,-8.1618,-8.1604,-8.1714,-8.1766,-8.1869,-8.1903,-8.1988,-8.1945,-8.1988,-8.1999,-8.201,-8.2024,-8.1724,-8.2002,-8.2001,-8.2,-8.2,-8.1999,0,-8.129,-8.1324,-8.1409,-8.1495,-8.1569,-8.1527,-8.1591,-8.1655,-8.1753,-8.1805,-8.1879,-8.1992,-8.2081,-8.2107,-8.2192,-8.2255,-8.224,-8.2279,-8.2274,-8.2282,-8.2056,-8.2022,-8.229,-8.229,-8.229,-8.229,-8.229,-8.229,-8.1442,-8.158,-8.1586,-8.1746,-8.1777,-8.1887,-8.1927,-8.1979,-8.2022,-8.2151,-8.2226,-8.2243,-8.2285,-8.2374,-8.2454,-8.2459,-8.2493,-8.254,-8.2538,-8.2326,-8.2297,-8.2269,-8.2238,-8.2547,-8.2547,-8.2757,-8.2759,-8.276]}]]